{"data":{"norad_id":59255,"epoch":"2026-09-21T12:58:55.360128Z","epoch_age_seconds":72245,"freshness":"FRESH","line1":"1 59255U 24050B   26264.54091852  .00000882  00000+0  37230-4 0  9997","line2":"2 59255  53.1622 350.6246 0001129  89.1340 270.9792 15.34392127140548","mean_motion":15.34392127,"eccentricity":0.0001129,"inclination_deg":53.1622,"raan_deg":350.6246,"arg_perigee_deg":89.134,"mean_anomaly_deg":270.9792,"bstar":3.723e-5,"rev_number":14054,"period_min":93.848239616261,"perigee_km":461.9543070173,"apogee_km":463.49897402733,"semimajor_km":6840.8636405223,"source":"CELESTRAK","updated_at":"2026-09-22T09:00:48.870971Z"}}